Theta_e
318 316 316 316 315 315 318 319 315 311 312 314 316 318 320 321 320 318 318 318 317 321 325 324 323 324 323 321 319 320 321 320 319 316 315 315 314 315 317 317 318 319 318 317 319 320 320 318 319 321 322 321 321 322 320 316 318 320 320 322 327 329 329 324 321 323 323 322 326 326 325 330 330 330 336 336 332 333 333 331 332 328 325 329 330 328 336
319 317 316 315 315 315 317 319 316 312 312 314 316 320 322 320 319 320 321 318 318 322 325 324 325 326 325 323 322 321 319 319 319 317 317 317 315 316 318 317 317 318 317 319 320 318 318 317 318 320 321 322 323 321 320 322 323 322 322 322 323 327 329 326 321 320 320 320 323 327 331 332 327 330 341 342 337 336 333 330 332 328 325 330 330 326 337
320 318 316 315 315 315 316 319 318 312 312 315 316 319 321 319 318 320 322 321 319 321 321 321 324 327 327 326 325 324 321 320 319 317 318 317 314 316 318 316 317 319 318 320 321 319 318 318 319 319 318 321 323 320 321 328 331 330 332 330 325 328 332 329 322 319 320 324 328 332 337 337 333 338 346 347 344 340 333 328 326 325 328 332 329 329 342
320 318 316 315 315 315 316 318 318 313 312 315 316 317 321 322 321 325 327 324 322 321 322 324 326 328 328 328 326 324 322 320 317 315 314 314 314 316 317 315 317 319 320 322 323 321 319 320 323 324 320 320 321 320 321 325 332 342 343 335 330 333 334 334 333 329 328 334 336 338 340 340 341 344 346 347 347 344 337 327 322 326 328 329 334 341 347
320 319 317 315 315 316 315 318 318 313 312 315 317 319 323 323 324 330 330 327 325 326 326 327 329 328 327 328 326 323 322 321 317 314 313 313 315 317 317 317 318 318 322 324 322 322 324 322 322 323 321 321 319 319 320 321 330 343 338 328 331 335 331 333 340 338 337 339 338 336 337 339 341 343 343 347 347 342 334 326 328 333 324 323 342 353 351
321 319 317 315 315 316 315 317 318 314 311 315 318 321 323 324 325 327 327 328 328 327 327 330 332 330 328 327 325 323 322 322 318 315 313 313 315 317 318 319 318 319 322 322 323 327 326 321 322 323 321 322 321 319 319 319 325 331 325 324 333 334 327 330 339 339 338 338 336 334 335 335 337 337 338 343 346 341 335 335 340 338 326 329 348 356 354
321 320 317 315 315 316 315 317 318 314 311 314 318 320 322 324 324 324 325 328 329 327 328 331 332 330 330 330 326 322 323 323 319 314 314 316 316 317 321 322 318 319 325 328 332 334 326 318 324 328 322 321 322 321 320 319 320 321 322 325 331 331 328 331 337 339 339 339 337 337 336 334 334 334 335 339 345 346 344 345 346 342 339 346 354 356 357
321 320 318 315 315 315 315 317 318 315 311 313 316 318 320 321 322 323 325 326 328 329 330 331 330 328 329 330 327 323 322 322 321 317 316 318 317 316 321 322 317 318 327 331 329 331 329 322 323 327 323 321 324 323 320 319 319 320 322 325 326 328 331 333 335 336 337 338 337 336 336 335 334 335 335 337 342 347 348 348 349 348 350 355 355 355 358
321 320 319 315 314 315 315 316 318 315 311 312 313 313 314 316 318 320 324 327 329 330 330 329 329 326 325 326 326 326 323 321 322 321 317 315 317 318 319 319 317 317 323 325 320 323 330 326 320 324 323 318 320 321 319 319 320 321 323 324 326 328 330 330 332 334 334 336 338 336 334 335 337 338 337 337 340 346 349 350 351 351 352 354 353 354 357
322 321 319 316 314 315 315 314 316 315 311 311 311 311 312 315 317 318 323 327 327 328 329 327 325 325 326 328 328 328 327 322 321 324 323 315 312 315 317 318 319 320 321 321 318 320 326 322 317 318 318 313 314 317 317 317 320 324 325 325 327 330 329 329 330 330 330 334 336 335 330 330 338 341 338 336 338 342 348 351 350 350 352 354 354 353 355
322 321 319 316 314 315 314 313 313 313 311 310 311 311 311 314 317 318 322 325 324 324 328 327 325 327 330 330 329 329 329 325 323 326 327 319 314 314 316 319 321 322 322 320 317 318 320 318 315 315 316 316 316 316 317 318 320 323 325 325 328 330 329 330 330 328 330 333 333 333 330 329 337 343 340 337 337 338 344 348 346 346 350 353 354 354 353
322 321 320 317 314 315 314 312 312 311 309 310 311 311 310 311 315 319 323 324 323 323 325 325 325 329 330 328 328 328 329 329 326 324 323 320 316 314 314 320 324 323 320 316 314 316 316 316 319 320 318 318 318 318 319 320 320 319 319 323 329 329 328 330 329 327 331 332 329 332 334 333 336 339 338 337 337 336 339 342 342 342 346 349 352 353 351
321 321 320 317 315 315 313 312 312 311 308 309 310 311 310 309 313 320 322 323 323 324 324 322 322 324 325 326 327 327 329 329 326 325 324 321 318 315 314 320 325 321 315 314 318 322 321 322 327 326 322 321 321 320 321 320 320 320 318 321 328 329 327 328 327 325 328 330 329 332 336 336 333 333 333 335 336 337 339 342 342 340 341 346 350 351 349
321 320 319 317 315 315 313 311 312 310 308 309 310 311 310 309 313 318 321 322 322 323 322 320 321 324 326 327 328 328 329 327 323 322 321 317 316 316 316 317 318 316 314 319 327 328 324 327 327 322 320 322 320 319 322 321 320 321 321 322 327 330 330 328 325 324 328 331 332 333 335 337 336 335 333 333 334 336 341 345 343 339 339 343 348 349 348
321 320 318 317 315 315 313 311 311 311 309 309 311 311 310 309 311 314 318 321 322 322 320 319 321 326 326 325 326 327 328 328 323 320 322 322 319 315 313 312 312 312 315 323 332 330 324 323 321 316 315 317 316 318 323 323 321 320 320 321 324 328 333 331 325 324 328 331 333 336 337 337 337 334 330 329 330 333 337 343 344 340 340 343 345 347 347
320 319 317 315 314 314 313 311 311 311 309 309 311 311 310 311 311 312 316 320 322 321 320 318 320 323 323 323 325 326 327 327 325 324 328 329 322 315 314 312 311 315 322 329 333 332 326 322 320 316 315 317 318 318 320 323 323 321 321 323 324 326 333 333 325 324 328 327 329 335 337 334 333 332 330 329 329 330 333 341 344 341 340 343 345 346 346
320 318 316 314 314 313 313 312 311 311 310 309 310 310 311 311 311 312 315 319 322 321 319 319 321 322 321 322 324 325 326 326 325 325 327 326 323 322 320 317 314 316 324 334 334 329 324 322 320 317 317 320 321 319 320 325 324 320 322 327 327 327 331 329 322 324 328 326 325 330 333 332 332 332 330 330 330 330 332 335 339 339 339 341 344 344 345
319 318 316 314 313 313 312 311 311 311 310 309 310 310 310 310 311 312 314 318 322 322 320 320 322 322 321 322 323 323 324 324 323 324 327 327 327 326 322 320 319 315 321 336 338 326 321 321 319 318 318 320 321 318 320 324 322 321 326 329 328 330 331 328 324 326 328 326 325 327 330 332 333 332 330 330 328 328 328 329 333 338 340 341 341 342 342
318 317 316 314 312 312 312 311 311 311 309 309 310 311 310 310 311 313 314 317 319 320 320 319 320 321 321 321 320 320 321 322 321 323 328 326 324 323 319 319 321 319 323 334 334 324 319 320 321 321 319 321 322 321 321 323 322 323 326 326 325 327 328 328 327 328 328 327 326 326 327 330 331 331 330 329 326 324 328 332 334 337 339 339 339 340 340
317 316 315 313 312 311 311 311 311 310 309 309 310 311 311 311 312 312 313 315 316 317 318 318 318 319 319 318 319 319 319 320 321 323 325 324 322 321 318 319 321 321 323 327 324 321 321 320 322 323 320 321 323 322 321 323 323 323 325 325 325 325 324 325 328 329 329 329 327 327 328 329 330 331 331 331 330 331 335 337 338 338 338 338 338 339 340
316 315 314 313 311 311 311 311 310 309 309 309 310 310 311 312 312 312 312 312 314 316 317 316 317 318 318 318 319 319 319 320 321 321 321 322 321 321 321 326 329 326 326 326 322 321 324 324 323 322 322 322 322 321 323 324 323 323 325 326 327 327 325 326 329 329 328 328 329 331 332 331 329 331 333 334 334 334 337 340 339 338 338 338 339 339 339
315 314 314 313 311 311 311 311 310 309 308 310 310 310 311 311 311 311 311 311 312 314 315 315 315 314 315 315 316 317 318 318 319 320 320 320 322 323 323 330 334 331 329 329 325 322 324 324 323 323 323 323 322 322 324 323 321 323 326 325 326 327 327 327 329 329 328 329 332 333 332 329 328 330 333 334 334 333 336 339 339 337 337 337 338 339 338
313 313 313 312 311 311 311 311 310 309 308 309 310 310 311 311 310 311 311 311 311 312 313 314 314 315 316 316 316 316 317 317 318 320 319 319 322 323 323 327 329 327 328 332 332 331 330 326 324 324 325 324 324 324 322 320 321 325 327 326 327 327 326 329 331 331 330 331 331 331 331 331 331 330 331 333 334 335 336 338 339 337 336 336 336 337 336
313 313 312 311 310 311 311 310 309 308 308 308 309 309 310 310 310 310 311 312 312 314 316 317 317 318 319 319 318 319 320 320 321 321 319 319 321 323 324 325 324 326 334 335 330 330 331 326 323 324 324 325 325 324 322 322 324 327 327 328 329 327 326 330 333 331 332 334 333 332 332 332 332 333 334 334 335 336 336 338 338 337 336 336 336 335 335
312 312 311 310 310 310 310 310 309 308 308 308 309 309 309 310 310 310 311 312 313 315 318 318 318 318 319 319 320 321 321 321 322 323 321 319 319 321 324 323 320 325 335 332 326 330 335 329 325 325 325 324 323 323 324 324 324 326 328 328 330 328 328 330 332 331 332 334 332 331 330 330 330 333 335 337 336 336 336 336 336 335 335 335 335 335 333
312 312 311 310 310 310 310 309 308 307 307 307 308 309 309 310 310 310 310 311 311 313 315 317 318 319 319 318 317 318 318 319 321 323 323 321 320 320 321 322 321 323 327 327 328 337 341 333 328 328 326 324 323 324 325 324 323 326 327 326 327 328 329 330 332 332 332 333 331 330 332 333 333 334 334 335 336 336 335 335 335 335 335 335 334 335 334
312 311 310 309 310 309 309 308 307 307 308 308 308 308 308 309 309 310 310 311 313 317 318 318 319 319 318 317 315 316 319 320 321 323 324 323 321 319 319 321 324 327 330 328 328 335 338 331 327 326 325 323 324 325 324 324 325 326 327 326 326 329 330 329 330 332 333 334 333 333 335 335 335 335 334 333 334 335 335 335 335 335 335 335 334 334 334
311 310 309 309 309 308 307 308 308 308 308 308 308 308 309 309 309 310 310 310 313 316 317 316 316 317 317 318 317 318 321 323 322 324 324 323 322 320 320 321 322 327 334 334 331 336 337 328 323 325 324 324 325 325 323 324 326 326 327 328 328 331 331 331 331 330 331 333 334 333 335 336 335 334 333 331 333 336 336 335 335 335 336 336 334 333 333
310 309 309 308 307 307 307 308 309 308 308 308 309 309 310 310 310 310 310 310 310 312 313 314 316 317 319 319 319 320 323 321 319 321 323 322 321 321 320 321 323 326 333 337 336 336 334 327 324 325 325 325 327 326 325 326 326 327 330 331 331 331 330 333 335 332 330 332 332 331 334 335 333 331 331 330 332 335 335 334 334 335 336 337 336 335 334
309 309 308 307 306 307 307 308 308 308 309 309 310 310 312 313 312 310 310 310 310 311 313 316 318 319 319 319 321 324 324 319 316 319 320 320 321 320 320 324 327 329 334 338 336 332 329 327 326 324 322 324 326 326 327 328 327 327 331 332 332 331 330 329 331 330 329 331 330 329 332 332 329 328 329 329 331 334 333 333 334 335 336 337 336 336 336
308 308 307 306 306 307 308 308 308 308 309 310 310 310 314 315 313 310 310 311 310 311 314 317 318 319 319 321 323 325 324 320 319 321 321 321 321 321 322 326 329 331 336 341 336 329 326 327 326 323 323 326 328 328 329 328 326 328 332 332 331 331 330 327 326 327 328 329 328 327 329 328 327 328 329 328 330 333 332 333 334 334 334 334 334 335 335
307 306 306 306 307 307 308 308 309 309 309 310 310 311 312 313 312 311 311 311 311 312 315 318 320 320 323 325 324 322 321 321 322 323 324 324 324 323 324 327 329 329 332 337 334 327 326 326 326 325 325 326 329 330 329 327 326 330 333 332 332 330 329 327 327 326 327 328 329 329 330 328 328 330 330 329 330 332 332 331 331 330 330 330 330 331 332
306 306 306 307 307 308 308 308 309 309 309 309 310 310 310 310 311 311 311 311 312 313 315 319 322 323 323 326 324 320 319 321 324 326 326 325 325 325 326 328 330 328 326 328 329 326 324 325 327 326 324 324 327 330 328 328 330 332 332 332 331 329 327 327 328 327 328 329 331 333 333 330 328 328 329 329 330 330 329 328 328 328 329 329 329 329 330
306 307 307 308 308 308 309 309 309 310 310 310 310 310 310 311 311 311 311 311 312 314 314 318 323 324 323 324 324 321 320 321 325 328 327 324 324 326 326 327 330 329 324 323 326 326 324 325 326 325 323 323 324 325 326 329 331 330 329 329 328 326 326 327 328 328 329 329 329 330 331 329 327 327 327 327 326 326 326 326 327 328 327 327 326 327 328
306 307 308 308 309 309 309 309 310 310 310 310 310 311 311 311 311 312 312 311 313 316 317 319 321 322 324 326 325 322 321 322 323 325 325 323 322 325 326 327 329 327 322 321 324 326 326 325 325 325 325 324 323 323 326 330 330 329 329 329 328 326 327 329 329 329 328 327 327 327 327 327 327 327 326 323 322 323 324 325 326 325 324 323 324 325 326
307 307 308 309 310 310 310 310 310 310 310 310 311 312 313 312 311 312 313 312 314 316 319 320 320 321 324 327 325 322 321 323 323 323 325 324 322 323 327 328 326 324 322 322 324 326 325 324 324 325 326 324 326 331 336 337 336 333 331 331 329 328 330 331 330 328 326 326 327 327 327 328 328 327 324 322 321 322 322 322 322 322 321 320 321 323 324
307 308 309 310 310 310 310 311 310 310 311 311 312 313 313 312 311 312 312 312 313 314 315 318 320 320 321 323 323 322 321 323 323 324 326 325 324 324 327 328 328 325 324 325 325 325 324 324 324 326 326 327 332 341 344 343 342 341 337 333 329 328 331 331 328 326 326 326 326 327 328 328 328 325 323 321 321 321 321 321 321 321 320 319 320 321 323
308 309 310 310 310 311 313 313 312 312 313 312 312 314 314 313 313 314 313 313 314 314 314 316 318 319 319 320 322 322 321 322 324 325 325 325 325 324 325 327 327 325 325 325 324 323 324 326 326 325 326 330 336 340 341 341 340 339 337 333 329 327 328 327 326 326 328 328 327 327 327 328 326 324 323 321 321 321 322 322 322 321 321 320 320 320 321
309 309 310 310 310 312 313 314 313 314 314 313 313 315 317 316 317 317 315 315 317 317 316 317 318 319 318 320 321 321 320 321 324 326 326 324 324 325 326 326 325 324 325 325 323 322 325 328 327 325 326 331 333 335 339 342 338 331 329 329 328 327 327 327 327 329 331 331 329 327 327 327 326 324 323 321 321 322 323 322 322 322 322 321 320 320 320
309 310 310 310 311 312 313 313 313 314 314 314 314 316 317 317 317 317 317 317 319 319 318 319 319 317 318 319 320 320 321 321 323 326 327 325 323 325 328 326 324 324 327 326 324 323 325 327 327 325 326 331 334 334 338 342 339 331 326 326 327 327 328 328 328 329 331 331 329 327 327 328 326 324 322 321 320 320 320 320 320 321 320 319 319 319 319
310 310 310 311 312 312 312 313 314 314 315 316 316 317 318 318 317 316 317 319 320 318 318 319 319 319 318 319 318 320 323 323 322 325 328 327 322 323 326 325 323 324 326 326 324 323 324 326 327 326 328 336 340 337 335 336 335 329 325 325 327 328 329 329 328 328 328 328 327 326 326 326 325 324 323 321 320 321 321 320 320 319 318 318 318 318 316
310 310 310 311 311 312 313 315 316 316 317 318 319 319 318 318 318 317 317 318 318 317 317 319 320 320 319 319 318 321 325 325 324 326 329 328 324 323 324 324 323 324 325 325 323 323 325 326 325 325 332 342 344 338 334 335 333 328 325 326 327 327 328 328 327 327 327 327 327 326 325 324 324 323 322 321 321 321 321 319 319 318 317 317 316 314 313
310 310 310 311 312 313 316 317 318 318 318 319 320 321 320 318 318 318 317 316 315 315 317 318 317 316 316 318 319 321 323 323 324 327 328 326 325 325 325 325 324 324 323 323 324 325 327 327 325 326 336 343 342 336 333 331 328 327 326 326 327 327 328 328 327 326 326 326 325 324 324 323 322 321 320 320 321 320 319 318 317 315 315 315 313 313 314
310 310 311 312 313 315 318 319 317 318 321 321 320 321 322 320 318 318 317 317 315 314 316 318 317 315 316 318 320 321 321 322 323 326 326 324 324 327 328 326 325 323 322 324 326 326 326 325 326 329 337 340 340 339 334 327 325 326 326 325 326 327 327 326 327 326 325 324 323 322 322 321 320 319 318 319 320 320 319 318 316 314 313 314 313 314 314
311 311 313 315 316 317 318 319 318 318 321 320 318 319 321 320 319 318 317 316 315 314 315 316 317 316 316 318 319 321 323 323 324 326 326 325 324 325 326 325 323 322 323 325 326 325 324 324 326 331 338 342 343 342 334 326 325 327 326 324 324 325 325 325 326 326 325 324 322 321 320 320 319 318 318 318 318 318 318 316 314 313 314 314 314 314 314
313 313 314 317 319 317 317 318 319 319 319 319 318 318 319 319 319 318 316 314 314 315 316 316 316 316 317 318 318 320 323 325 324 325 325 325 325 325 323 323 324 324 325 326 326 325 324 325 326 333 342 345 342 337 330 324 323 325 326 325 325 325 325 325 327 327 326 324 322 320 320 320 319 318 318 317 316 317 316 314 313 313 314 315 315 314 313
313 313 313 317 319 317 316 318 318 318 318 317 317 318 318 317 317 317 316 314 315 317 317 317 316 316 316 317 318 320 323 325 325 324 323 324 326 325 323 323 325 326 326 327 326 325 324 326 331 339 348 347 339 334 330 325 323 324 327 327 325 324 325 325 326 327 326 323 322 321 320 319 319 318 317 316 316 316 315 314 313 313 314 315 314 313 313
313 313 314 317 318 317 317 318 317 316 316 317 316 315 316 316 316 317 317 316 316 317 318 317 317 317 316 316 318 320 322 324 326 324 322 324 326 326 325 325 326 326 325 325 326 325 325 328 334 342 346 343 337 334 333 328 324 324 326 326 325 324 324 324 325 326 325 323 322 322 320 319 318 318 317 317 317 316 314 313 313 314 314 314 314 313 313
312 313 314 316 316 316 317 317 317 317 317 317 316 315 315 315 317 318 318 316 316 318 318 319 318 318 316 317 319 321 324 325 325 322 322 323 326 326 326 327 327 326 325 324 324 326 328 331 336 341 342 338 335 334 332 329 325 325 325 325 325 325 325 325 326 325 324 323 323 322 320 319 318 318 318 318 318 316 314 313 313 314 314 314 314 313 312
311 312 314 315 317 318 318 318 318 319 318 317 317 317 316 316 317 318 317 317 319 320 319 319 320 318 317 318 320 322 323 324 323 322 323 325 325 324 326 327 327 326 326 325 326 329 330 330 333 339 341 339 336 333 329 326 324 325 325 325 326 326 325 326 325 324 323 323 323 321 320 319 318 318 318 318 316 315 314 313 313 314 314 314 314 313 311
312 312 313 314 316 319 320 319 319 319 319 319 318 318 317 317 319 319 318 318 319 320 321 323 324 320 317 319 320 319 320 322 323 323 324 325 323 323 325 326 325 324 326 327 329 332 331 328 327 332 338 338 334 330 326 325 325 326 325 325 325 325 324 324 324 323 323 322 322 320 319 318 317 316 316 315 314 314 314 314 314 314 314 314 313 312 311
313 313 314 315 316 317 318 319 319 319 319 319 318 318 317 317 319 320 320 320 320 320 322 325 326 322 318 320 321 321 320 322 324 324 324 323 322 323 325 326 326 328 330 330 330 332 333 330 328 330 333 333 330 327 324 324 325 326 325 325 325 324 324 324 323 323 322 321 321 320 319 318 316 315 315 315 315 316 317 316 314 314 314 313 312 311 311
Wind_Speed
35 39 37 34 35 34 32 33 36 40 39 34 28 15 3 1 1 5 4 4 1 3 1 1 1 2 1 1 3 2 2 3 2 2 1 2 1 1 1 2 1 1 0 1 1 1 2 1 2 2 1 2 4 3 3 1 2 1 1 1 1 1 0 0 1 1 2 3 5 4 5 2 6 1 1 2 2 3 2 2 2 4 5 2 2 3 1
34 38 37 33 33 34 31 31 33 36 35 30 21 8 1 1 2 3 3 1 2 2 2 1 1 2 1 2 2 2 2 3 3 3 2 1 1 1 2 2 1 1 1 1 1 1 2 2 2 1 1 1 2 2 5 2 2 1 1 1 1 1 0 0 1 2 3 4 4 2 6 4 1 2 4 3 1 4 1 3 2 4 5 3 3 4 1
33 37 37 32 32 33 31 28 30 33 31 26 16 3 1 2 1 1 2 1 1 1 1 1 1 1 1 1 3 3 2 3 3 3 3 1 1 1 1 1 1 2 1 2 2 1 0 2 1 1 2 2 2 2 5 3 1 1 1 1 1 0 0 1 2 2 2 3 2 1 4 5 5 5 6 6 1 4 2 3 3 4 3 2 3 3 1
31 35 36 31 30 32 31 28 28 30 28 23 13 3 1 2 0 0 2 2 2 1 1 1 1 1 0 1 1 1 2 3 2 4 2 1 1 0 0 1 1 1 1 1 2 3 2 0 1 1 2 1 0 2 4 3 1 2 4 3 1 1 2 2 3 4 3 5 5 3 3 4 5 8 9 8 4 5 5 4 4 4 2 3 2 1 2
30 34 34 29 28 31 31 28 26 27 25 19 11 3 0 1 1 1 2 1 1 1 1 2 1 1 1 1 1 1 2 3 2 3 2 0 1 1 1 1 1 1 2 2 1 2 2 2 1 1 2 1 2 2 2 3 4 4 2 2 0 3 3 4 9 11 9 9 8 7 8 7 7 10 11 10 6 5 9 6 2 1 3 4 2 2 3
28 32 32 28 26 28 30 28 26 26 22 16 9 2 0 1 1 0 1 1 0 0 1 3 3 1 1 1 1 1 1 2 2 1 0 1 1 1 0 1 0 2 3 2 2 1 1 1 1 1 2 2 1 1 1 1 4 5 2 1 1 2 3 2 7 11 10 9 7 8 8 6 7 9 12 12 9 5 8 4 2 3 4 2 5 6 4
27 30 31 26 24 26 29 27 26 25 20 12 7 3 0 1 1 0 1 2 1 2 2 3 3 3 2 2 3 2 1 1 2 1 1 1 1 1 2 1 0 1 3 3 2 2 2 1 1 2 1 1 0 1 0 0 1 2 1 2 1 1 3 4 7 9 9 7 6 8 7 3 6 7 10 13 12 7 3 3 4 5 2 5 9 9 6
26 29 30 25 22 24 27 26 26 26 20 9 4 4 2 1 1 1 2 2 2 2 2 2 2 2 1 2 2 2 2 1 1 2 3 2 1 1 4 3 1 1 2 3 3 4 4 2 1 3 2 1 1 1 2 2 1 1 1 1 1 0 3 5 5 5 5 5 5 6 3 2 3 4 9 13 13 9 2 6 7 5 6 9 11 10 7
24 27 28 24 20 22 24 24 25 25 20 9 4 4 3 1 0 1 1 1 1 1 1 0 1 1 1 2 1 1 3 1 1 3 4 4 3 3 6 6 3 1 1 2 4 5 5 3 2 3 3 0 0 1 1 3 1 0 0 1 2 1 2 3 3 2 3 5 5 2 3 5 1 5 8 11 11 8 2 5 5 4 8 11 10 8 5
22 25 26 23 19 20 21 21 22 23 20 12 5 3 4 2 0 0 1 1 1 1 1 0 1 2 1 1 1 2 1 0 1 3 2 3 4 3 6 8 4 2 2 4 4 5 6 3 1 2 1 2 1 1 0 2 1 1 1 0 1 1 3 2 1 1 3 5 3 3 5 3 1 4 4 6 11 11 3 4 6 4 4 8 6 5 5
20 22 24 20 17 18 18 17 19 21 18 13 5 3 4 3 1 0 1 2 0 1 1 1 2 1 1 2 2 3 3 2 2 2 2 1 2 2 3 5 3 2 3 2 1 2 3 2 2 3 3 4 4 3 2 2 2 1 1 1 1 2 2 2 0 0 3 3 1 3 1 2 2 2 4 2 6 12 8 4 6 7 3 5 7 8 9
18 20 21 18 16 17 16 13 15 17 15 11 5 2 2 2 1 1 0 1 1 0 1 2 1 2 3 3 5 6 7 6 5 5 5 2 2 1 1 2 2 3 3 3 4 4 4 2 2 2 3 4 3 3 5 5 5 2 0 0 1 2 2 1 1 1 2 1 2 1 0 1 2 1 3 5 4 7 9 8 8 8 5 6 10 10 10
17 19 20 16 14 15 13 10 11 13 13 10 6 3 2 1 1 1 1 1 2 1 2 4 4 5 6 5 6 8 9 10 8 8 8 5 3 3 3 2 1 1 4 6 6 4 2 1 1 1 3 4 2 1 5 7 6 4 3 2 1 3 2 1 1 2 2 1 0 0 1 1 3 4 1 3 1 3 6 6 6 7 7 3 8 10 10
16 17 18 14 12 14 11 8 8 10 11 10 6 4 3 1 1 1 0 1 2 1 2 4 4 3 3 4 5 7 8 8 5 4 5 5 5 6 4 1 0 0 3 4 4 3 1 1 1 1 1 2 1 1 2 4 4 5 5 3 1 3 3 2 1 1 1 1 0 0 1 1 2 3 1 2 2 2 2 3 3 2 4 3 4 9 9
14 17 17 12 10 12 10 6 6 8 10 9 6 4 4 2 3 2 1 1 2 1 3 4 1 3 4 5 5 5 5 4 2 1 2 2 3 3 2 1 1 1 2 2 2 1 1 1 1 1 1 1 2 1 1 1 2 5 4 3 3 2 1 2 2 1 1 1 1 1 1 1 2 3 2 2 3 4 4 2 3 1 3 3 2 6 8
13 16 16 10 8 10 9 5 4 6 9 8 5 4 3 1 3 2 2 2 2 2 2 2 1 4 5 6 4 3 3 3 2 1 1 0 0 1 1 1 0 1 2 3 2 1 1 1 2 2 1 1 1 0 1 1 1 2 2 4 6 5 2 1 1 1 2 2 2 2 2 1 2 4 3 3 3 5 7 4 1 2 4 3 3 5 6
12 15 14 9 8 9 9 5 3 5 7 7 6 4 1 2 3 2 2 2 2 3 3 2 2 2 3 3 2 1 1 2 2 1 0 0 0 1 1 1 1 1 2 2 1 1 1 1 1 1 1 1 0 1 0 0 1 2 1 2 5 5 3 1 2 2 3 3 2 1 1 0 2 2 1 2 3 5 5 2 2 3 3 2 0 3 4
12 13 13 9 9 9 9 6 3 4 5 6 6 3 0 2 3 3 2 1 3 5 4 2 3 3 2 2 2 1 2 2 1 1 1 0 1 1 2 1 1 1 1 1 1 1 2 1 0 1 1 1 1 1 1 1 1 1 1 0 1 2 2 0 2 2 3 3 2 1 1 1 1 1 3 2 2 4 3 2 3 4 2 1 2 3 4
12 12 12 10 9 9 8 6 4 4 5 5 5 3 1 1 3 4 2 2 3 4 2 2 3 4 2 3 3 2 2 2 1 2 2 0 0 1 2 1 1 1 2 1 2 1 1 1 1 1 1 2 1 1 1 1 0 1 0 1 1 1 1 0 1 2 1 1 1 1 0 1 2 4 2 0 2 2 0 2 2 2 2 3 4 5 5
13 12 11 10 10 9 7 6 6 5 4 3 3 2 1 2 4 4 2 2 3 6 8 8 10 10 7 6 5 5 4 3 2 1 1 1 2 1 2 2 1 1 1 1 2 1 1 2 1 1 1 2 1 1 1 1 0 0 1 1 0 1 1 1 2 1 1 1 2 1 1 2 3 4 1 2 1 1 3 3 2 3 5 5 5 6 7
14 12 9 9 10 9 7 7 7 5 4 1 2 2 1 4 6 3 3 2 2 4 5 4 6 9 9 9 10 10 8 7 5 2 2 2 2 1 1 2 1 1 1 2 2 1 1 1 1 1 1 1 0 1 1 1 2 1 1 1 1 1 1 1 1 1 1 2 2 0 1 2 2 2 1 0 2 1 4 4 3 4 5 6 6 7 9
14 10 8 9 10 8 7 7 7 5 5 3 2 3 3 4 5 5 4 5 6 8 11 14 17 22 25 27 27 25 23 22 18 10 5 3 2 1 0 1 2 1 1 1 2 1 1 2 2 1 1 1 1 1 0 1 2 2 1 1 1 0 1 1 1 1 1 1 2 1 2 2 1 1 1 1 1 1 3 5 5 5 5 6 7 9 9
12 9 9 10 10 9 8 8 7 6 6 5 4 4 4 4 4 4 5 6 7 11 18 23 24 24 25 26 25 23 23 25 24 20 13 6 3 2 2 2 1 1 1 1 1 1 2 2 1 1 1 2 2 2 1 1 1 2 2 0 1 1 0 0 1 2 1 1 2 1 1 2 2 1 1 1 1 2 3 6 7 6 6 7 8 9 8
10 9 10 11 10 9 8 7 6 6 7 6 6 6 6 7 7 6 5 5 4 6 9 11 9 8 10 11 10 10 14 18 20 21 20 15 6 2 2 3 1 1 1 1 0 1 2 2 1 1 2 2 2 2 2 1 1 2 2 1 1 1 2 1 2 2 2 2 2 1 1 2 2 2 3 3 4 3 4 7 8 8 8 9 9 8 7
9 10 10 10 9 8 8 7 7 7 7 7 7 7 7 8 7 4 3 3 2 3 4 4 5 7 9 10 10 10 12 12 13 16 20 22 18 7 1 1 1 0 1 1 1 1 1 2 1 1 2 2 1 1 1 1 1 2 2 2 1 2 3 2 2 2 1 2 3 2 2 1 1 1 3 5 6 6 5 7 8 8 8 8 7 7 6
9 10 11 9 7 8 8 8 7 6 7 6 7 8 9 9 8 6 4 3 2 3 4 5 6 6 8 13 15 13 10 9 11 14 18 24 27 20 8 4 2 1 2 2 1 1 1 2 1 1 2 1 1 1 1 1 1 1 1 0 1 2 3 2 3 3 2 2 3 4 4 3 1 1 3 4 6 9 9 8 9 9 9 8 7 6 7
11 11 11 9 8 9 8 6 5 5 5 6 8 10 11 11 12 10 8 5 3 3 3 4 5 8 12 17 19 15 9 7 9 13 17 20 23 22 15 7 3 0 1 1 1 1 1 1 1 1 1 1 1 1 1 1 2 1 1 2 2 3 3 3 3 3 3 4 7 7 4 4 3 3 4 4 5 9 11 10 10 10 9 9 8 8 8
11 10 9 9 10 8 6 4 4 4 6 7 8 10 12 14 14 14 13 10 6 3 3 3 7 11 13 13 14 13 9 8 9 13 17 17 17 17 13 7 3 2 0 1 1 1 1 1 1 2 2 2 2 2 1 1 2 1 2 4 4 4 4 5 4 2 1 4 9 6 3 5 5 5 5 4 3 7 10 9 9 9 8 9 10 10 9
10 9 9 10 9 6 5 4 5 6 6 5 7 9 10 10 10 11 14 14 10 4 3 4 6 7 7 9 12 12 9 7 9 13 14 14 15 14 10 6 4 2 1 2 1 1 1 1 1 1 0 1 2 3 2 2 3 2 2 5 4 2 3 4 3 1 1 4 8 5 3 6 7 5 5 4 2 5 8 7 7 8 8 9 9 9 9
8 9 9 8 6 6 4 4 5 5 5 5 5 6 4 3 2 4 11 14 11 5 2 3 3 4 5 7 8 7 6 4 4 10 12 11 10 9 7 5 2 0 1 2 1 1 1 1 1 1 1 1 1 3 2 3 3 1 2 5 4 2 3 3 0 1 2 5 6 5 4 7 7 5 5 4 2 5 8 7 7 8 9 10 10 8 9
9 10 9 6 6 5 4 4 4 4 5 5 3 2 2 1 2 3 7 11 11 5 2 3 4 4 5 4 4 4 4 2 4 8 8 7 6 4 4 3 1 1 1 1 1 1 1 1 1 2 1 1 0 2 2 2 3 2 3 6 5 4 5 4 0 1 4 8 9 7 7 8 8 6 5 4 4 7 9 8 9 10 11 11 10 9 10
10 8 7 7 6 5 4 4 5 6 7 7 7 5 5 2 5 8 7 7 8 5 2 3 3 3 3 3 3 3 2 1 3 4 3 2 3 2 1 1 2 2 2 2 1 1 1 1 1 2 1 0 0 2 2 2 3 2 3 6 5 3 5 5 3 4 6 10 11 9 7 6 5 4 6 7 7 9 11 11 11 12 13 12 11 10 10
7 7 7 6 5 5 5 5 6 7 7 9 11 13 12 8 8 8 4 3 4 3 2 2 3 3 3 2 3 2 1 1 1 1 2 2 1 1 1 2 2 2 2 1 1 1 1 1 1 2 1 0 0 2 2 2 2 2 3 4 4 4 5 5 5 6 8 7 5 5 7 8 6 6 9 10 9 10 12 13 13 13 13 13 12 10 10
8 8 6 5 5 5 5 5 6 7 7 8 9 10 9 9 13 12 8 5 2 1 2 2 2 3 3 2 1 2 3 1 1 1 2 1 1 0 1 1 1 1 1 1 1 1 1 1 1 2 2 1 0 2 3 2 2 2 3 4 3 5 6 5 5 7 7 3 2 3 7 10 10 10 10 10 9 10 12 13 14 13 11 10 9 9 10
9 7 6 5 5 5 5 5 6 7 6 6 7 6 3 7 14 15 13 8 3 1 2 2 2 3 3 1 1 2 4 1 1 0 1 1 1 1 1 1 1 1 1 1 0 1 1 1 1 2 2 1 1 2 2 3 4 4 4 5 6 7 8 7 6 7 5 3 4 7 10 12 12 11 10 10 10 10 11 11 13 13 11 8 8 9 9
9 7 5 4 5 5 4 4 6 6 4 4 5 4 3 9 14 16 15 9 4 2 1 1 1 2 2 1 1 2 4 1 1 1 1 2 1 1 1 2 1 1 0 0 1 1 1 1 1 2 2 2 3 3 2 3 6 7 6 7 8 7 6 7 9 9 6 5 7 9 11 13 12 10 9 9 10 9 10 10 11 12 11 9 7 7 8
7 5 4 3 3 3 3 4 5 6 5 2 2 4 7 11 11 11 10 7 5 4 2 2 2 3 2 2 2 2 3 0 1 1 1 1 2 1 1 1 1 1 1 1 1 1 1 0 1 2 3 3 3 2 2 3 5 6 6 7 8 5 2 6 11 12 9 8 8 8 9 10 10 9 9 10 9 9 10 11 10 10 12 10 8 8 8
5 4 4 3 2 2 2 3 3 3 4 5 6 7 7 6 5 4 3 3 3 4 3 2 3 2 1 2 2 2 2 1 0 1 1 1 1 1 1 1 1 1 1 1 1 1 1 1 1 2 3 2 2 3 4 4 4 3 4 6 8 6 5 8 13 14 12 9 8 8 8 9 10 9 9 11 10 9 10 10 10 11 12 11 10 10 11
5 4 4 4 3 2 2 2 1 1 3 7 6 3 2 3 2 2 2 2 2 3 3 3 4 3 3 4 4 2 1 1 1 1 2 0 0 1 1 0 1 1 1 1 1 1 2 2 1 2 3 2 3 4 4 4 3 3 3 5 7 8 8 9 13 14 12 10 12 13 12 12 12 10 9 9 9 7 8 9 10 11 11 12 13 13 12
5 4 3 3 3 3 2 3 3 0 4 5 3 2 2 2 2 2 2 2 2 2 3 3 2 2 3 4 3 2 0 0 1 0 2 1 0 0 1 1 1 1 2 1 1 1 2 1 1 2 3 3 4 4 4 4 4 4 4 6 8 9 11 11 11 10 7 7 10 14 13 13 14 13 11 10 9 7 7 8 9 10 12 14 15 14 14
5 4 2 2 3 4 4 3 2 2 3 2 2 1 1 2 1 1 2 2 3 3 2 2 2 3 4 4 3 3 1 0 0 1 1 2 0 1 2 2 0 1 2 1 2 2 2 2 2 3 3 3 3 2 3 4 4 4 5 7 8 10 11 11 10 8 6 7 8 9 10 12 14 14 13 13 12 10 9 9 9 11 13 15 15 16 17
5 4 3 4 5 5 3 1 2 3 2 1 1 1 1 1 2 2 2 2 2 1 2 3 2 2 2 4 4 3 1 0 0 1 1 2 1 0 1 2 0 2 2 1 2 2 2 2 2 3 3 2 2 2 3 4 4 5 7 9 9 10 11 10 9 8 8 9 10 9 10 12 13 14 15 16 14 12 12 13 13 13 14 15 17 17 19
5 5 4 4 3 2 2 2 2 2 1 1 1 1 1 2 2 2 2 2 1 1 2 2 1 1 1 2 3 1 1 0 0 0 1 1 1 1 1 1 1 1 1 1 2 3 3 3 3 3 1 1 2 3 3 3 3 5 6 7 9 11 12 11 10 9 8 9 11 12 13 13 13 15 17 17 15 13 12 15 18 19 17 17 18 19 20
4 3 3 2 1 2 2 1 1 2 2 1 1 2 3 3 2 2 2 2 1 1 2 2 2 3 3 2 2 1 1 1 0 1 1 0 0 1 2 2 1 1 1 2 2 2 2 3 4 3 1 1 2 3 3 4 4 5 6 6 8 10 10 10 10 9 7 8 10 12 12 12 12 13 14 15 17 16 13 12 16 20 20 18 19 20 20
3 2 1 0 1 1 1 1 1 2 2 2 2 2 3 3 3 3 2 1 1 1 0 1 2 3 3 1 1 1 1 1 1 1 0 1 0 0 0 1 1 1 1 2 2 2 2 3 2 2 2 3 3 2 3 5 5 6 7 8 9 10 10 10 10 9 8 9 10 11 11 11 12 12 13 14 18 21 20 18 19 20 20 20 20 21 19
2 1 1 1 1 1 1 1 1 2 2 2 2 3 3 3 2 2 1 1 1 0 0 1 2 3 3 2 1 1 1 1 1 1 1 1 1 1 1 1 1 2 2 2 3 4 4 3 1 2 3 3 1 1 2 4 5 6 7 8 10 11 11 11 10 9 9 11 12 12 12 12 12 13 13 13 15 19 22 23 24 24 24 23 22 21 20
1 1 1 1 0 1 2 2 2 2 1 2 2 3 3 2 2 2 1 1 1 1 0 1 1 2 1 1 1 1 1 1 2 1 0 0 1 1 1 2 2 2 2 3 5 4 3 2 1 2 3 2 2 2 2 4 6 7 7 7 9 11 12 11 11 10 11 12 13 12 11 12 13 13 14 14 14 16 19 22 25 26 26 25 24 22 21
1 1 1 1 1 2 2 2 2 2 2 1 1 1 1 1 2 3 2 1 1 1 1 1 0 1 1 1 1 1 1 1 2 2 1 1 1 1 0 2 2 2 2 3 4 3 2 2 2 2 2 1 2 3 3 4 7 8 8 8 10 11 12 12 11 12 13 14 13 12 12 13 14 15 15 15 13 14 18 23 25 26 26 25 24 22 21
1 1 1 1 2 2 2 1 1 3 3 2 1 1 2 2 3 3 1 1 1 2 1 0 0 1 1 0 1 2 2 1 2 2 2 2 2 2 1 2 3 3 3 3 3 2 2 2 2 1 1 2 2 3 4 4 6 8 9 9 11 12 13 13 14 14 15 15 13 13 15 15 15 15 15 14 14 15 20 25 26 26 26 26 25 23 22
1 1 1 2 2 2 1 1 2 3 3 2 2 2 1 2 3 2 1 1 2 1 1 0 1 1 0 0 1 2 2 1 2 3 3 3 3 2 2 3 4 4 3 2 2 3 3 1 1 1 2 3 3 3 3 4 5 6 7 8 9 11 13 14 15 16 16 15 15 17 17 16 16 17 17 18 19 21 24 26 28 28 27 26 24 23 22
1 1 2 3 3 2 1 1 2 3 2 1 1 1 1 1 2 1 0 1 2 3 3 2 1 1 1 1 1 1 1 1 2 3 3 3 3 3 4 5 4 3 2 2 2 2 2 1 1 2 2 2 2 3 3 4 5 6 7 8 9 10 11 13 15 15 14 15 16 18 18 19 22 24 23 23 24 22 19 20 25 28 27 24 23 22 21
2 1 2 3 3 3 3 2 3 3 3 2 2 1 1 2 2 1 0 1 3 3 3 1 1 2 2 2 1 1 1 2 2 3 3 3 2 3 3 3 3 3 2 2 2 2 1 1 2 3 3 2 2 3 4 4 4 6 8 10 11 11 12 13 14 15 15 14 15 16 17 19 22 23 22 21 21 18 14 15 22 27 26 23 21 20 19
Wind_Direction
353 353 355 355 356 356 356 0 1 358 358 359 359 358 357 30 340 340 6 142 178 338 163 147 326 206 310 334 233 252 284 274 300 345 295 236 182 114 182 241 219 171 279 173 196 237 158 173 242 205 249 229 213 271 299 184 198 230 146 160 188 181 153 356 309 115 101 103 104 49 3 123 159 164 73 153 165 146 196 257 339 322 293 279 287 270 139
351 352 353 354 357 356 355 359 2 360 359 358 356 357 44 334 273 329 7 171 270 316 183 187 208 208 314 323 270 268 232 249 280 294 290 266 142 144 183 234 185 122 32 112 124 281 193 203 241 187 230 222 161 306 295 226 169 197 190 181 192 206 219 11 255 181 129 122 133 75 11 5 351 4 4 334 35 115 160 294 322 288 275 265 276 269 78
350 351 352 354 356 356 355 356 1 360 357 357 358 353 252 311 231 263 337 324 304 289 197 147 168 212 311 295 307 311 247 237 242 252 275 242 166 182 192 205 140 111 82 109 95 359 238 209 214 164 221 246 83 345 293 281 167 144 98 21 334 31 290 260 230 206 154 123 121 24 345 324 316 338 346 335 314 169 215 271 227 241 251 187 252 271 88
349 350 352 354 355 355 354 353 359 360 355 354 357 343 278 341 354 292 341 31 59 52 14 6 189 167 142 257 299 302 277 291 239 210 228 189 164 292 53 137 108 101 90 96 69 26 9 91 122 161 239 267 57 285 296 326 9 103 96 73 60 97 37 19 78 95 106 104 89 49 6 329 332 347 345 337 307 214 216 241 229 238 240 198 235 303 107
348 349 351 353 354 354 353 350 355 359 356 353 355 351 151 3 336 351 352 3 49 75 78 19 13 136 171 261 270 240 273 321 314 204 197 115 169 308 17 70 162 189 159 128 90 24 4 18 35 327 303 288 251 273 312 358 338 333 66 72 91 121 86 64 85 95 109 112 98 69 46 23 1 1 353 340 325 218 207 225 217 190 249 234 162 128 130
346 348 350 352 354 354 352 348 352 358 357 354 358 359 159 356 349 59 342 291 205 103 3 1 344 259 224 232 247 258 279 334 319 267 15 16 248 224 206 96 91 209 175 144 136 124 31 28 358 293 300 292 275 351 28 27 340 326 340 39 27 115 111 114 106 110 122 115 95 81 59 9 339 3 2 346 331 254 209 214 196 199 246 224 129 132 119
344 347 348 350 351 352 352 348 349 357 358 360 12 24 11 2 17 90 332 293 247 277 311 331 307 262 241 227 226 233 241 282 288 273 310 324 308 254 215 224 290 178 158 134 141 185 181 147 242 235 228 290 262 81 354 186 44 337 329 57 52 90 96 129 127 118 122 113 91 89 76 352 317 353 358 348 333 292 219 121 145 182 163 125 128 120 93
342 345 347 347 348 351 352 348 347 356 2 10 46 45 19 2 7 354 335 295 261 270 294 300 288 272 229 224 224 216 224 252 321 270 243 243 262 217 190 183 152 155 167 156 162 189 195 158 144 196 192 227 203 175 246 232 97 355 318 46 7 7 117 152 151 113 114 121 97 82 74 273 285 355 358 352 335 295 233 109 123 143 130 132 131 115 89
338 343 346 346 346 349 351 348 346 355 6 25 71 45 13 356 329 339 323 298 283 274 270 302 293 276 210 202 208 212 213 208 334 273 239 224 240 218 175 158 130 79 118 150 156 177 189 170 148 179 182 357 304 188 246 234 207 93 259 3 6 56 130 176 179 121 141 141 116 92 243 226 175 30 6 352 330 292 223 105 98 130 151 148 130 110 97
334 341 344 344 344 347 349 349 346 353 10 32 54 29 12 7 304 304 289 290 336 330 321 91 224 249 244 206 239 270 258 183 288 286 247 223 257 248 172 157 135 96 142 166 184 194 193 186 133 169 146 30 44 133 220 241 255 227 179 164 22 108 148 170 188 162 139 122 128 216 236 225 90 37 20 354 326 309 311 72 49 39 148 153 128 107 101
328 337 342 341 341 343 347 350 349 355 14 33 36 13 13 10 346 269 260 255 304 47 270 227 220 252 22 34 332 305 287 242 224 250 256 266 315 318 154 145 129 145 169 163 133 151 156 136 97 111 80 56 74 93 93 69 8 325 217 170 94 123 137 137 295 239 116 90 305 249 257 18 39 94 132 157 295 301 311 2 19 9 32 117 107 100 96
322 333 339 338 335 338 344 350 351 356 12 29 30 10 9 358 316 309 241 247 266 8 260 246 249 293 310 322 314 294 275 266 250 238 248 290 354 12 147 134 137 155 145 108 92 105 120 103 76 75 33 26 56 92 81 59 34 12 304 186 132 121 111 113 47 60 104 57 316 286 124 13 8 70 144 165 231 281 300 320 346 357 12 89 103 100 96
317 328 336 335 328 330 339 349 350 352 4 20 27 357 330 342 299 276 150 252 270 239 279 286 279 278 282 287 290 283 278 279 268 237 233 246 250 229 215 195 184 125 112 112 103 101 114 66 9 330 346 354 343 112 61 40 28 37 35 13 139 138 134 136 84 75 121 157 295 255 236 298 333 335 351 131 160 278 286 298 331 350 345 30 100 105 99
314 326 333 329 319 323 332 344 347 346 355 10 21 350 318 219 210 266 186 255 266 215 274 286 283 283 290 294 297 297 295 292 274 216 209 217 217 224 230 227 334 36 124 117 87 65 105 90 40 222 314 349 266 203 57 34 30 38 32 13 116 137 144 161 150 116 142 156 119 27 334 313 308 307 306 137 159 222 265 293 318 334 309 321 88 109 112
312 325 331 322 308 314 323 336 343 341 346 359 12 352 318 239 220 262 288 270 288 267 232 237 283 356 337 325 320 311 308 311 299 209 226 229 206 215 230 18 24 168 121 90 57 66 110 164 173 191 216 211 202 220 323 355 32 39 38 50 77 88 146 187 199 177 130 140 125 112 156 213 183 176 175 200 207 185 177 241 311 258 225 244 151 134 135
313 325 329 316 297 304 313 324 333 331 336 347 1 358 340 190 182 235 292 279 274 280 241 222 317 341 317 304 299 283 291 321 320 294 304 334 215 169 103 71 249 192 89 74 72 79 87 157 192 192 196 192 181 175 325 303 90 81 66 75 79 71 61 120 179 178 164 187 194 169 188 206 144 155 180 244 238 191 178 183 244 246 235 228 167 152 137
313 324 325 310 286 292 302 306 309 316 325 339 352 356 350 163 172 240 291 263 242 274 284 256 256 288 294 289 278 243 270 306 304 288 269 106 13 342 337 73 75 64 74 85 79 66 88 111 156 194 179 162 220 173 138 269 147 141 128 68 76 72 67 153 203 191 173 196 213 208 220 153 114 157 250 291 235 207 209 208 130 165 224 285 22 126 99
311 322 322 302 275 281 293 290 276 287 308 330 347 359 33 177 183 205 259 281 256 264 277 270 254 250 263 288 294 312 314 306 303 296 280 252 43 329 311 328 90 76 40 74 112 95 113 134 202 229 157 122 279 240 140 165 178 132 113 62 70 65 53 334 219 182 177 200 199 213 266 95 88 320 324 345 212 214 239 346 73 126 159 348 41 85 78
310 318 315 293 272 275 285 277 254 257 287 322 350 12 20 206 181 186 215 246 237 245 280 327 287 261 281 311 299 298 298 280 286 293 270 153 75 280 279 288 281 13 42 76 121 111 139 156 171 273 173 139 212 247 115 136 184 65 112 232 194 136 113 100 187 151 151 197 189 218 236 97 27 338 331 157 233 253 354 51 74 104 96 84 92 98 96
309 313 307 285 269 270 275 267 250 242 262 315 354 1 305 212 175 172 200 232 253 268 275 272 261 258 271 282 270 272 281 264 244 252 231 48 359 298 206 189 195 109 105 146 140 145 199 161 138 238 208 128 137 176 120 112 205 241 279 293 299 164 182 174 160 139 109 169 183 222 196 96 24 339 270 192 284 354 99 105 99 90 89 98 107 111 115
305 304 294 274 266 262 259 259 254 236 221 247 329 329 270 195 188 205 258 256 252 272 278 273 258 259 268 269 260 260 263 254 248 267 301 317 322 282 190 185 184 151 152 163 140 136 212 153 124 188 150 77 22 210 149 132 147 161 296 295 208 182 254 227 161 178 243 194 162 185 355 31 11 331 263 357 357 93 129 123 102 98 105 110 113 118 122
298 294 280 267 264 259 250 253 256 232 201 201 256 274 258 228 223 246 277 264 244 253 269 280 283 280 279 276 271 263 257 254 254 255 265 288 280 243 261 295 250 197 139 123 131 134 159 154 155 161 141 138 158 137 61 189 165 150 188 256 242 112 351 326 113 134 270 341 58 34 353 356 344 301 313 8 19 133 140 125 113 114 119 117 120 125 123
292 280 266 259 258 254 246 251 258 231 201 202 230 243 255 263 257 272 287 270 259 263 266 270 277 280 276 272 271 267 260 256 252 240 225 222 259 253 224 249 257 149 155 212 151 149 162 155 143 147 158 162 148 132 144 255 206 146 152 216 339 23 33 334 117 138 152 38 38 27 17 30 42 51 43 67 93 116 129 123 118 118 122 123 127 128 123
280 261 258 256 251 247 242 248 253 227 204 212 234 245 261 273 272 277 273 252 261 283 270 258 258 265 269 275 282 272 256 252 250 240 222 206 209 260 221 213 222 118 164 215 98 87 126 125 94 218 185 167 161 155 159 205 196 160 155 148 147 181 190 137 114 152 167 138 116 90 42 26 26 64 90 91 83 84 109 118 120 122 124 125 128 128 124
259 244 253 254 245 241 239 242 244 230 219 223 235 249 265 270 265 257 243 239 267 295 294 280 257 260 285 305 296 271 260 261 258 243 219 205 209 228 352 60 226 216 112 151 136 102 110 112 111 206 169 167 211 200 165 189 190 181 185 179 148 171 186 160 121 134 129 103 107 96 69 44 344 39 94 103 102 98 97 108 118 121 118 118 122 125 126
238 235 250 250 236 233 239 242 241 232 223 224 236 248 257 260 254 239 236 257 255 243 268 289 277 282 319 319 300 286 283 273 249 231 219 213 217 226 253 324 333 39 78 88 116 99 93 104 128 164 157 181 222 182 121 122 128 155 202 167 97 148 170 159 127 125 106 98 145 155 135 118 110 79 90 106 116 118 115 114 118 119 116 114 113 111 116
231 241 250 241 231 235 240 240 233 232 241 250 255 258 257 257 253 240 226 218 210 234 255 257 276 308 319 308 300 301 302 274 239 220 218 218 217 222 236 265 294 230 107 90 86 80 98 128 137 100 115 136 125 99 77 105 121 148 166 152 164 167 156 149 152 156 159 164 170 172 150 130 146 146 121 119 127 128 127 127 127 125 123 121 116 108 109
237 249 242 232 235 236 227 217 223 247 266 268 270 275 272 263 255 242 228 220 222 265 297 272 284 304 308 299 298 310 314 288 247 218 211 211 208 210 217 225 230 232 138 100 110 105 107 146 143 109 119 153 149 127 86 121 159 207 181 169 185 187 168 170 177 181 162 155 161 169 138 124 144 146 130 137 146 128 125 128 130 128 126 125 123 120 117
248 245 231 233 237 216 195 215 234 244 259 271 288 294 282 264 252 238 225 219 218 237 299 291 276 287 303 306 305 313 324 301 243 211 196 192 196 200 203 205 213 214 102 94 112 116 97 97 141 124 119 237 169 151 151 166 183 211 164 163 176 181 172 178 163 79 67 148 154 161 126 123 140 143 131 141 152 117 115 117 120 124 124 122 121 119 118
248 236 232 237 222 191 197 239 241 233 245 268 295 295 265 237 258 229 211 205 203 208 273 293 277 291 315 310 297 306 337 331 209 175 163 165 176 184 184 183 184 100 90 90 82 116 127 119 126 133 344 328 172 164 166 171 185 213 158 165 170 152 156 175 336 29 139 134 135 137 112 111 121 120 115 127 132 114 113 112 114 120 120 118 116 112 112
245 237 232 218 200 203 230 252 244 241 248 250 253 257 252 277 63 122 170 182 187 194 256 275 273 295 305 280 267 301 330 347 127 128 128 129 125 132 159 170 129 22 65 93 77 113 144 136 140 149 133 355 106 157 153 167 188 201 170 169 173 160 158 164 114 61 119 118 115 107 99 110 122 121 123 143 144 122 117 114 113 113 108 105 107 107 109
251 233 205 191 203 225 229 228 239 246 246 242 236 246 274 272 132 126 127 152 175 192 274 287 272 295 306 275 283 315 324 143 120 101 88 89 98 105 96 62 62 60 67 88 114 115 116 126 139 139 134 357 42 131 146 181 191 172 150 157 159 154 160 156 131 120 134 132 124 115 118 143 162 144 136 148 145 126 120 117 114 111 106 100 98 95 96
230 195 186 198 223 231 223 231 247 248 252 261 260 261 264 244 188 166 148 142 169 201 268 286 276 285 299 305 317 336 6 137 145 76 58 35 14 118 72 45 57 68 48 58 138 124 85 156 150 128 130 348 91 145 167 191 188 136 121 133 138 147 157 151 139 147 158 153 136 136 154 165 158 122 124 134 132 123 122 121 119 115 110 108 105 100 97
192 188 205 215 219 227 234 246 254 254 260 267 267 269 263 226 205 208 216 207 184 231 264 265 282 293 290 280 346 13 20 73 182 127 72 41 338 165 117 57 39 72 33 11 113 132 142 156 142 145 147 118 192 194 189 184 166 122 111 117 128 137 138 136 149 164 166 157 62 83 118 125 120 117 123 127 124 123 126 126 125 120 112 108 110 108 105
183 192 204 207 225 249 255 254 255 261 263 252 254 276 270 195 194 199 201 196 183 183 221 226 248 287 297 265 138 26 4 21 145 50 77 99 35 30 108 109 85 113 43 5 41 165 147 104 155 181 163 148 211 213 194 172 168 162 150 148 148 144 142 154 174 174 160 126 104 110 118 125 129 132 134 135 135 135 133 129 128 125 119 115 117 115 112
179 192 209 235 262 265 259 252 244 238 234 242 263 276 217 174 173 180 189 204 236 270 277 296 246 245 289 307 118 353 345 359 123 30 39 131 93 32 115 128 116 112 36 13 227 185 116 90 231 201 168 195 215 208 192 173 171 174 179 178 172 166 159 162 162 155 136 117 125 133 138 141 140 138 139 142 143 142 137 134 132 130 127 127 127 122 120
180 208 236 251 250 245 246 237 224 218 217 209 99 112 143 150 152 163 184 211 238 235 242 300 268 247 285 307 287 312 327 270 144 41 32 136 119 57 19 79 125 155 176 155 153 108 102 153 249 219 196 212 224 216 207 187 175 177 187 184 178 176 144 134 140 136 124 118 129 139 144 142 140 140 144 147 149 150 147 145 144 141 140 142 145 142 139
197 225 223 200 200 236 222 195 205 236 212 171 138 126 140 151 147 152 172 197 205 201 205 246 256 250 262 274 283 323 353 326 164 94 97 113 114 98 43 65 121 149 211 168 105 52 144 155 258 253 229 230 259 246 228 211 197 196 187 174 170 167 149 141 142 138 130 132 149 158 152 148 151 157 157 156 161 163 157 153 154 152 148 148 150 149 149
212 214 204 203 220 239 187 174 306 343 164 172 181 186 172 169 173 164 161 186 205 195 199 226 238 228 224 248 279 321 9 305 285 126 115 71 286 157 147 120 116 140 228 206 145 202 219 190 183 256 245 232 231 228 213 194 198 209 189 171 166 161 154 154 157 158 158 165 172 171 166 161 163 167 166 162 162 160 151 151 156 156 152 152 154 154 156
212 203 200 208 218 227 241 270 296 245 155 174 211 230 165 175 201 169 145 175 213 202 198 215 228 222 223 240 270 296 280 287 306 149 123 106 334 183 144 143 155 178 222 226 138 171 234 224 190 235 246 229 215 214 198 180 188 194 179 169 165 162 165 171 173 167 157 153 162 168 169 164 160 162 165 165 161 157 156 160 163 159 156 157 159 161 164
200 196 203 230 242 254 274 282 247 190 182 202 227 202 166 183 204 168 157 193 219 215 201 200 203 209 210 209 221 244 250 93 334 283 121 106 91 206 148 131 145 224 220 200 139 152 214 229 215 233 246 230 212 212 196 184 180 170 166 168 166 165 169 173 170 159 138 133 148 161 165 162 160 161 164 167 166 163 159 160 162 162 161 161 164 166 166
188 200 237 277 276 270 273 247 185 188 205 206 187 204 209 184 175 185 201 221 236 219 190 193 206 218 198 185 192 221 245 145 214 270 125 120 147 230 111 108 165 227 206 148 123 155 199 230 242 245 244 232 224 219 199 191 180 169 169 171 168 166 168 169 168 163 154 149 151 155 157 161 165 168 168 168 166 162 159 161 163 165 166 166 166 164 161
204 226 257 283 281 242 197 174 186 200 200 142 140 185 208 190 190 211 210 211 231 224 185 184 208 244 206 187 188 203 289 290 259 354 90 128 146 95 97 116 186 201 152 123 151 182 202 224 238 244 241 235 235 224 210 198 172 157 164 170 169 167 167 165 160 156 150 149 155 159 160 161 166 173 173 169 162 158 161 168 171 171 169 167 165 162 159
220 245 265 267 231 183 162 166 209 220 218 190 169 186 198 196 199 207 196 181 198 206 183 173 192 197 192 186 181 175 192 219 172 63 41 18 122 130 152 181 187 150 143 172 189 205 232 239 245 259 279 265 251 229 197 180 163 152 155 162 164 162 160 156 151 147 142 143 151 157 158 155 156 164 171 171 167 163 160 163 170 171 168 163 160 158 158
194 216 270 270 226 215 163 149 201 226 230 217 191 194 205 202 194 198 199 178 169 197 183 182 197 194 183 171 182 187 178 167 143 120 202 277 247 147 191 173 143 143 185 202 196 211 237 238 238 247 244 242 246 222 175 169 168 156 148 153 162 165 163 160 159 156 152 150 151 153 154 152 152 158 168 176 178 173 168 167 171 170 163 157 156 155 157
193 184 138 136 224 234 200 173 181 202 215 213 199 197 207 212 206 205 208 182 190 270 5 153 190 195 187 172 173 189 170 152 143 148 173 170 152 137 313 276 176 177 204 216 215 226 236 231 213 228 236 235 231 192 159 156 159 159 155 159 169 173 170 168 167 162 156 153 153 153 155 158 160 162 165 170 176 177 175 174 174 171 163 158 156 156 158
230 195 141 126 216 230 213 208 213 216 219 222 217 215 216 225 250 253 230 210 238 283 5 118 190 209 201 185 201 215 193 149 133 111 321 184 136 90 317 256 218 194 203 220 227 235 242 237 222 232 237 223 187 181 171 160 168 177 174 166 167 171 172 171 168 162 156 154 154 156 159 160 159 159 159 160 167 175 176 174 172 170 166 162 159 158 159
217 193 171 177 211 216 212 211 226 245 245 230 226 226 212 228 259 254 229 191 212 216 190 167 175 171 155 192 210 203 178 144 140 136 141 182 166 137 196 224 224 224 223 228 235 240 239 234 233 234 230 209 187 184 180 177 181 184 180 170 169 172 174 173 171 166 162 159 157 157 160 160 159 160 160 157 158 168 174 172 169 168 166 162 160 160 162
270 220 206 232 236 242 243 241 257 261 250 231 226 230 209 225 252 256 227 168 200 208 194 247 252 189 170 184 186 189 208 213 172 154 160 181 185 179 176 197 215 222 217 218 237 248 237 225 230 238 229 217 205 196 192 188 186 185 183 179 176 175 175 175 172 167 164 163 161 159 160 160 158 158 158 155 156 165 171 171 168 167 166 165 163 163 166
279 229 235 248 246 245 229 208 244 260 259 240 234 236 231 251 269 272 223 192 203 170 122 107 232 188 119 66 143 181 209 194 141 150 183 192 176 170 188 203 211 217 211 201 218 239 242 231 219 240 237 223 212 209 203 192 188 190 188 181 176 174 174 172 168 165 166 168 166 161 159 160 160 162 166 168 167 165 167 168 168 168 169 168 167 167 170
235 236 247 247 247 256 284 295 270 274 285 297 296 310 326 294 278 281 352 218 195 166 164 184 182 111 109 163 169 166 181 163 143 168 200 198 169 173 202 213 213 212 212 211 223 243 252 239 209 232 247 235 209 207 208 198 189 186 180 173 169 169 171 170 166 164 164 166 164 161 162 168 172 174 174 170 163 157 157 165 170 170 170 170 171 171 172
211 236 252 250 249 254 264 273 277 277 281 293 306 316 303 284 279 304 5 237 208 191 182 169 124 120 156 189 176 146 159 177 172 181 197 202 194 194 208 218 216 207 215 232 241 240 241 226 217 232 246 246 216 196 194 192 187 180 176 171 167 165 167 169 167 163 160 160 162 163 163 167 170 168 163 158 156 153 154 164 171 172 172 173 174 174 173